INTELSAT 18 (IS-18) 1 37834U 11056A 21065.55350139 .00000037 00000-0 00000-0 0 9993 2 37834 0.0257 72.2473 0001892 297.0921 174.3964 1.00272847 34558 SL-23 R/B 1 37835U 11056B 21065.35175227 -.00000272 00000-0 00000-0 0 9997 2 37835 18.0751 226.2423 5626153 144.1636 271.5424 1.96799138 67690